[[{"header":{"parameterUnit":"m.s-1","parameterCategory":1,"la1":30.2991,"la2":30.254,"lo1":-89.0895,"lo2":-89.0444,"dy":0.0017,"dx":0.0017,"nx":28,"ny":28,"refTime":"2024-06-24T03:00:00:Z","depth":0,"parameterNumber":2,"parameterNumberName":"U-component_of_WINDS"},"data":[0,0,0,0,0,0,0,0,0,0,0,0,0,0,0,0,0,0,0,0,0,0,0,0,0,0,0,0,0,0,0,0,0,0,0,0,0,0,0,0,0,0,0,0,0,0,0,0,0,0,0,0,0,0,0,0,0,0,1.2342,1.2343,0,1.2446,1.2447,1.2448,1.2478,1.2478,1.2477,1.2477,1.2583,1.2587,1.259,0,0,0,0,0,0,0,0,0,0,0,0,0,1.2169,1.2172,1.2342,1.2343,1.2344,1.2446,1.2447,1.2448,1.2478,1.2478,1.2477,1.2476,1.2582,1.2586,1.259,0,0,0,0,0,0,0,0,0,0,0,0,0,1.2256,1.2173,1.2342,1.2372,1.2375,1.2445,1.2447,1.2449,1.2478,1.2478,1.2477,1.2476,1.2581,1.2586,1.2591,1.2639,0,0,1.2606,1.2608,0,0,0,0,0,0,0,0,1.2251,1.2262,1.2366,1.237,1.2374,1.2448,1.2425,1.2512,1.2479,1.2439,1.2477,1.2476,1.2539,1.2547,1.2569,1.2644,1.2648,1.2607,1.261,1.2612,1.2613,0,0,0,0,0,0,0,1.2245,1.2258,1.2383,1.2367,1.2372,1.238,1.2391,1.2442,1.2493,1.2443,1.2445,1.2457,1.2541,1.2564,1.2572,1.265,1.2606,1.2611,1.2614,1.2616,1.2768,1.2769,0,0,0,0,0,0,1.2234,1.2252,1.238,1.2386,1.2309,1.2383,1.2396,1.2425,1.2492,1.2502,1.2458,1.2458,1.2556,1.2566,1.2575,1.2635,1.2612,1.2617,1.2619,1.2767,1.2768,1.2769,0,0,0,0,0,0,1.223,1.2245,1.2375,1.232,1.2337,1.2387,1.242,1.2428,1.245,1.2503,1.2513,1.2471,1.2555,1.2568,1.2622,1.2639,1.2619,1.2623,1.2766,1.2767,1.2768,1.2754,0,0,0,0,0,0,1.2225,1.2243,1.2262,1.232,1.234,1.2421,1.2421,1.243,1.2459,1.246,1.2519,1.2528,1.2556,1.2615,1.2627,1.2645,1.2627,1.2764,1.2766,1.2768,1.2753,1.2755,1.2756,0,0,0,0,0,1.2218,1.2254,1.2263,1.2278,1.2364,1.2421,1.2433,1.2464,1.246,1.2479,1.2513,1.2526,1.2635,1.262,1.2634,1.2654,1.2763,1.2766,1.2768,1.2753,1.2755,1.2756,0,0,0,0,0,0,1.2196,1.2262,1.2272,1.2328,1.2369,1.2426,1.2451,1.2465,1.2508,1.2508,1.2545,1.2558,1.2609,1.2638,1.2619,1.2704,1.27,1.2705,1.2683,1.2685,1.2687,1.2679,1.2632,0,0,0,0,0,1.2198,1.2239,1.2294,1.2338,1.2358,1.2401,1.2427,1.2448,1.2491,1.2509,1.2547,1.2589,1.2633,1.2661,1.2704,1.2758,1.277,1.2779,1.278,1.2781,1.2785,1.2814,1.2818,1.2776,1.2776,1.2776,0,0,1.2201,1.2243,1.2266,1.2334,1.2368,1.2409,1.2415,1.2459,1.249,1.2516,1.2568,1.2598,1.2647,1.2701,1.2727,1.2726,1.2799,1.2784,1.2784,1.2788,1.2817,1.2821,1.2824,1.2778,1.2778,1.2777,0,0,1.2229,1.2264,1.2304,1.2338,1.239,1.2418,1.2428,1.2483,1.2503,1.2557,1.2577,1.2615,1.2689,1.2724,1.2751,1.279,1.2803,1.2804,1.2811,1.2839,1.2843,1.2846,1.2859,1.2863,1.2807,1.2807,1.2807,0,1.2227,1.229,1.2323,1.2365,1.2394,1.242,1.246,1.2491,1.2554,1.2573,1.2572,1.2666,1.2701,1.2762,1.2772,1.2794,1.2805,1.2797,1.2839,1.2843,1.2846,1.2859,1.2864,1.2807,1.2807,1.2807,1.2807,0,1.2284,1.2327,1.2353,1.2413,1.2445,1.2486,1.2525,1.2554,1.2571,1.26,1.2654,1.2697,1.2749,1.2765,1.2783,1.2829,1.2827,1.2832,1.2829,1.2849,1.2862,1.2867,1.2806,1.2807,1.2807,1.2807,0,0,1.2299,1.2377,1.2386,1.2413,1.2472,1.2505,1.2548,1.2598,1.2621,1.2664,1.27,1.2762,1.2767,1.2798,1.282,1.2845,1.2872,1.2847,1.2849,1.2849,1.2924,1.2919,1.2924,1.2881,1.2883,1.2883,1.2919,0,1.2333,1.2409,1.244,1.2501,1.2541,1.2566,1.2602,1.2642,1.267,1.2708,1.2739,1.2782,1.2785,1.2804,1.283,1.2863,1.2887,1.2861,1.2914,1.2916,1.29,1.2931,1.2926,1.2958,1.2925,1.2926,1.2926,0,1.2383,1.2425,1.249,1.2543,1.2561,1.2594,1.2642,1.2678,1.2723,1.2742,1.2776,1.2797,1.2841,1.2835,1.2897,1.2878,1.2902,1.2922,1.2924,1.2929,1.2921,1.2936,1.2969,1.2973,1.2935,1.2934,1.2933,0,1.2386,1.246,1.2508,1.2531,1.2594,1.2616,1.2643,1.2688,1.2716,1.2759,1.2777,1.2824,1.285,1.2886,1.2919,1.2912,1.2977,1.2974,1.2993,1.2992,1.3005,1.3003,1.304,1.3021,1.3021,1.3021,1.3021,0,1.242,1.2458,1.251,1.254,1.2583,1.2619,1.2661,1.269,1.273,1.2765,1.279,1.2822,1.2864,1.2902,1.2928,1.2974,1.2986,1.3002,1.3008,1.2999,1.2997,1.3014,1.3012,1.3023,1.3022,1.3022,1.3022,0,1.243,1.2467,1.2521,1.2577,1.2591,1.2621,1.2669,1.2698,1.2727,1.2771,1.2784,1.2829,1.2875,1.2911,1.2971,1.2989,1.3037,1.3045,1.3022,1.3025,1.3041,1.3038,1.309,1.3098,1.3074,1.3074,1.3075,0,1.2449,1.2479,1.2538,1.2563,1.259,1.2631,1.266,1.2696,1.2725,1.2779,1.2801,1.2849,1.2889,1.2961,1.2999,1.3045,1.3053,1.3068,1.306,1.305,1.3052,1.3049,1.3052,1.3068,1.3068,1.3068,1.3068,0,1.2477,1.2494,1.2535,1.2581,1.2615,1.2654,1.2693,1.2712,1.2755,1.2787,1.2834,1.2864,1.2925,1.2972,1.3022,1.305,1.3066,1.3071,1.3077,1.3068,1.3053,1.306,1.3023,1.3069,1.3069,1.3069,1.3069,1.3069,1.2492,1.252,1.2565,1.2609,1.2643,1.2679,1.2709,1.2741,1.2781,1.2833,1.2852,1.29,1.2945,1.3013,1.3041,1.3079,1.3081,1.309,1.3093,1.3094,1.3093,1.3047,1.3089,1.3089,1.3089,1.3089,1.3089,0,1.2521,1.2551,1.2592,1.2646,1.268,1.2693,1.2737,1.2765,1.2807,1.2847,1.2886,1.2939,1.2984,1.3026,1.3073,1.3095,1.3104,1.3107,1.3105,1.3111,1.3089,1.3078,1.3099,1.3099,1.3099,1.3099,1.3099,1.3099,1.254,1.2587,1.2609,1.2673,1.2703,1.275,1.2774,1.2807,1.2839,1.2898,1.2935,1.2962,1.3003,1.3053,1.3095,1.3106,1.3122,1.3122,1.3135,1.3114,1.3112,1.3111,1.3101,1.3126,1.3126,1.3153,1.3154,1.3154]},{"header":{"parameterUnit":"m.s-1","parameterCategory":1,"la1":30.2991,"la2":30.254,"lo1":-89.0895,"lo2":-89.0444,"dy":0.0017,"dx":0.0017,"nx":28,"ny":28,"refTime":"2024-06-24T03:00:00:Z","depth":0,"parameterNumber":3,"parameterNumberName":"V-component_of_WINDS"},"data":[0,0,0,0,0,0,0,0,0,0,0,0,0,0,0,0,0,0,0,0,0,0,0,0,0,0,0,0,0,0,0,0,0,0,0,0,0,0,0,0,0,0,0,0,0,0,0,0,0,0,0,0,0,0,0,0,0,0,4.1926,4.1925,0,4.1846,4.1845,4.1844,4.1801,4.1801,4.1801,4.1801,4.171,4.1708,4.1705,0,0,0,0,0,0,0,0,0,0,0,0,0,4.2036,4.2034,4.1926,4.1925,4.1924,4.1846,4.1845,4.1843,4.1801,4.1801,4.1801,4.1801,4.1711,4.1708,4.1705,0,0,0,0,0,0,0,0,0,0,0,0,0,4.1975,4.2034,4.1926,4.1894,4.189,4.1846,4.1844,4.1843,4.1801,4.1801,4.1801,4.1801,4.1712,4.1708,4.1705,4.1684,0,0,4.1694,4.1692,0,0,0,0,0,0,0,0,4.1979,4.1971,4.19,4.1896,4.1892,4.1834,4.185,4.1789,4.1801,4.1835,4.1801,4.1801,4.175,4.1744,4.1728,4.168,4.1676,4.1693,4.1691,4.169,4.1689,0,0,0,0,0,0,0,4.1983,4.1974,4.1894,4.1899,4.1894,4.1881,4.1872,4.1838,4.1794,4.1832,4.1828,4.182,4.1748,4.1732,4.1726,4.1674,4.1693,4.169,4.1688,4.1687,4.1604,4.1604,0,0,0,0,0,0,4.1994,4.1978,4.1897,4.1892,4.1936,4.1879,4.1869,4.1852,4.1794,4.1785,4.182,4.1818,4.1738,4.173,4.1723,4.1694,4.169,4.1686,4.1684,4.1604,4.1604,4.1604,0,0,0,0,0,0,4.1996,4.1987,4.19,4.1934,4.1922,4.1877,4.1858,4.1851,4.1834,4.1785,4.1776,4.1812,4.1738,4.1728,4.1694,4.1691,4.1685,4.1682,4.1604,4.1604,4.1604,4.1638,0,0,0,0,0,0,4.1999,4.1988,4.1981,4.1934,4.192,4.1875,4.1858,4.1849,4.1829,4.1826,4.1776,4.1767,4.1737,4.17,4.1691,4.1686,4.1679,4.1604,4.1604,4.1604,4.1637,4.1639,4.1641,0,0,0,0,0,4.2004,4.1992,4.1981,4.1972,4.1912,4.1875,4.1867,4.1835,4.1829,4.1821,4.179,4.1769,4.1693,4.1697,4.1686,4.168,4.1604,4.1604,4.1604,4.1636,4.1639,4.1641,0,0,0,0,0,0,4.2037,4.1986,4.1973,4.1947,4.1916,4.1868,4.1857,4.1839,4.1807,4.1805,4.1764,4.1753,4.1724,4.1698,4.1704,4.1657,4.1646,4.1644,4.1675,4.1677,4.1679,4.1685,4.1676,0,0,0,0,0,4.2042,4.2019,4.1974,4.1955,4.1941,4.1902,4.1885,4.1863,4.1829,4.1815,4.1781,4.1746,4.1714,4.1694,4.1662,4.1634,4.1621,4.1624,4.1626,4.1628,4.1626,4.1608,4.1609,4.1604,4.1604,4.1604,0,0,4.205,4.202,4.2007,4.1962,4.1935,4.1911,4.1891,4.1866,4.1846,4.181,4.1777,4.1751,4.1709,4.1679,4.1663,4.1657,4.1625,4.1628,4.163,4.1627,4.1608,4.1609,4.1609,4.1604,4.1604,4.1604,0,0,4.2054,4.2029,4.2011,4.1986,4.1947,4.1922,4.1917,4.1873,4.1855,4.1822,4.1795,4.1769,4.1716,4.1687,4.1666,4.166,4.1639,4.165,4.166,4.1643,4.1644,4.1644,4.1641,4.164,4.1649,4.1649,4.1649,0,4.2069,4.2033,4.2003,4.1979,4.1959,4.1929,4.1909,4.1885,4.1837,4.1823,4.1817,4.175,4.1719,4.1681,4.168,4.1664,4.1656,4.1655,4.1647,4.1647,4.1646,4.1643,4.1642,4.165,4.165,4.165,4.165,0,4.2053,4.2028,4.2018,4.1976,4.1955,4.1933,4.1897,4.1879,4.1859,4.1833,4.18,4.1763,4.1723,4.1712,4.1692,4.1671,4.1668,4.1655,4.1643,4.1649,4.1645,4.1643,4.1653,4.1652,4.1652,4.1651,0,0,4.2074,4.2017,4.2014,4.1994,4.195,4.1929,4.1905,4.187,4.1854,4.1822,4.18,4.1756,4.1744,4.172,4.1695,4.1681,4.1678,4.1669,4.1668,4.1672,4.1652,4.1662,4.1661,4.1664,4.1664,4.1664,4.1655,0,4.2071,4.203,4.2002,4.1971,4.1947,4.1918,4.1897,4.1867,4.1842,4.1816,4.1787,4.1757,4.1744,4.1729,4.1714,4.1682,4.1673,4.1682,4.1641,4.164,4.1652,4.1659,4.1669,4.1663,4.1654,4.1653,4.1653,0,4.2061,4.2033,4.2001,4.196,4.1949,4.1931,4.1896,4.1872,4.1836,4.1819,4.1793,4.1769,4.174,4.1733,4.1691,4.1698,4.168,4.1661,4.166,4.1654,4.1646,4.1652,4.166,4.1659,4.1651,4.1651,4.1651,0,4.2079,4.2033,4.2008,4.1992,4.1944,4.1932,4.1911,4.1875,4.1855,4.1824,4.181,4.1775,4.1755,4.1727,4.1693,4.169,4.1655,4.1644,4.1638,4.1639,4.1631,4.1632,4.1635,4.1621,4.1621,4.1621,4.1621,0,4.2078,4.2059,4.2016,4.2,4.1977,4.1945,4.1922,4.1898,4.1867,4.1844,4.1816,4.1795,4.1752,4.1725,4.1698,4.1668,4.1659,4.1642,4.1635,4.1645,4.1647,4.1631,4.163,4.162,4.162,4.162,4.1621,0,4.2094,4.2064,4.2035,4.1993,4.1981,4.1967,4.1929,4.1911,4.1886,4.1858,4.1849,4.1808,4.1774,4.1739,4.1692,4.1674,4.1645,4.1635,4.1658,4.1653,4.1649,4.165,4.1642,4.1639,4.1628,4.1628,4.1628,0,4.2095,4.208,4.2037,4.2021,4.2002,4.1976,4.1957,4.1924,4.1904,4.1863,4.185,4.1815,4.1786,4.1733,4.1698,4.1662,4.165,4.165,4.1645,4.1655,4.1649,4.1651,4.1648,4.1652,4.1652,4.1652,4.1652,0,4.2099,4.2086,4.206,4.203,4.2008,4.1982,4.1954,4.1942,4.1903,4.1882,4.1849,4.1826,4.1781,4.1746,4.1706,4.1681,4.1659,4.1655,4.1651,4.166,4.1674,4.1666,4.1662,4.1655,4.1654,4.1654,4.1654,4.1654,4.2107,4.2092,4.206,4.2033,4.2009,4.1984,4.1966,4.1939,4.1912,4.1875,4.1856,4.1823,4.1787,4.1732,4.1708,4.1679,4.1673,4.1668,4.1666,4.1666,4.1668,4.168,4.1672,4.1672,4.1672,4.1672,4.1672,0,4.2109,4.2088,4.2063,4.2026,4.2004,4.199,4.1958,4.194,4.1912,4.1882,4.1854,4.1816,4.1782,4.1745,4.1708,4.1693,4.1682,4.1684,4.1684,4.1679,4.1676,4.1683,4.1694,4.1694,4.1694,4.1694,4.1694,4.1694,4.2108,4.2083,4.2066,4.2028,4.2005,4.1975,4.1959,4.1935,4.191,4.187,4.1843,4.182,4.1786,4.1747,4.1715,4.1704,4.1691,4.1697,4.1683,4.1681,4.1679,4.1677,4.1683,4.1694,4.1694,4.1688,4.1688,4.1688]}]]